[[{"header":{"parameterUnit":"m.s-1","parameterCategory":1,"la1":30.2992,"la2":30.254,"lo1":-89.0895,"lo2":-89.0443,"dy":0.0025,"dx":0.0025,"nx":19,"ny":19,"refTime":"2026-03-30T03:00:00:Z","depth":0,"parameterNumber":2,"parameterNumberName":"U-component_of_WINDS"},"data":[0,0,0,-4.1835,-4.1836,-4.1907,-4.1907,-4.2007,-4.2008,0,0,0,0,0,0,0,0,0,0,0,-4.1821,-4.1822,-4.1835,-4.1837,-4.1907,-4.1907,-4.2007,-4.2008,0,0,0,0,0,0,0,0,0,0,0,-4.182,-4.1822,-4.1823,-4.1837,-4.1907,-4.1907,-4.2007,-4.195,0,0,0,0,0,0,0,0,0,0,-4.188,-4.1874,-4.1821,-4.1823,-4.1837,-4.1907,-4.1907,-4.1947,-4.1954,-4.198,0,-4.2006,0,-4.2009,-4.2016,-4.2016,0,0,0,-4.1831,-4.1869,-4.1881,-4.1823,-4.1838,-4.1907,-4.1874,-4.1951,-4.1958,-4.1989,-4.2008,-4.2011,-4.2011,-4.2016,-4.2017,-4.219,-4.2191,0,0,-4.1827,-4.1837,-4.1876,-4.1887,-4.1878,-4.1871,-4.1876,-4.1955,-4.1976,-4.2008,-4.2013,-4.2012,-4.2017,-4.2018,-4.2189,-4.219,0,0,0,-4.182,-4.1835,-4.1845,-4.1883,-4.1895,-4.1874,-4.1879,-4.1972,-4.1975,-4.2014,-4.2014,-4.2018,-4.2019,-4.2188,-4.2189,-4.225,0,0,0,-4.1817,-4.183,-4.1844,-4.1851,-4.1894,-4.1935,-4.1895,-4.1969,-4.1978,-4.2013,-4.2018,-4.202,-4.2186,-4.2188,-4.2246,-4.2277,0,0,0,-4.1814,-4.183,-4.1843,-4.1851,-4.1882,-4.1933,-4.194,-4.1971,-4.1978,-4.2016,-4.2021,-4.2186,-4.2188,-4.2242,-4.227,-4.2323,0,0,0,-4.1813,-4.1896,-4.1844,-4.1937,-4.1881,-4.1971,-4.194,-4.2006,-4.2046,-4.2018,-4.2187,-4.2189,-4.2241,-4.2267,-4.2319,-4.2368,-4.239,0,0,-4.1923,-4.191,-4.1964,-4.1919,-4.2021,-4.196,-4.207,-4.2098,-4.2092,-4.2157,-4.2161,-4.2247,-4.227,-4.2322,-4.2513,-4.2531,0,0,0,-4.2002,-4.2041,-4.2065,-4.2105,-4.2128,-4.215,-4.216,-4.217,-4.2225,-4.2128,-4.2282,-4.2295,-4.2325,-4.2348,-4.2363,-4.2387,-4.2201,-4.22,-4.22,-4.2171,-4.216,-4.2248,-4.2245,-4.2284,-4.2293,-4.2322,-4.2337,-4.2315,-4.2352,-4.237,-4.2487,-4.2514,-4.2525,-4.2551,-4.2397,-4.2397,-4.2397,-4.2398,-4.233,-4.2381,-4.2351,-4.2424,-4.2412,-4.2473,-4.2486,-4.2468,-4.2522,-4.2473,-4.2499,-4.2443,-4.2545,-4.2566,-4.2402,-4.2401,-4.2401,-4.24,-4.24,-4.2437,-4.2459,-4.2471,-4.2526,-4.257,-4.2565,-4.2618,-4.2606,-4.2594,-4.262,-4.2637,-4.2636,-4.2631,-4.263,-4.263,-4.2631,-4.2631,-4.2631,-4.2632,-4.2542,-4.2553,-4.26,-4.2633,-4.2656,-4.2685,-4.2695,-4.2717,-4.2738,-4.2724,-4.2725,-4.2697,-4.2558,-4.2521,-4.2638,-4.2637,-4.2636,-4.2635,-4.2635,-4.2702,-4.2664,-4.2737,-4.276,-4.2796,-4.284,-4.2824,-4.287,-4.2886,-4.2913,-4.2881,-4.2781,-4.2765,-4.2754,-4.2723,-4.2884,-4.2884,-4.2884,-4.2885,-4.2791,-4.2783,-4.2853,-4.2891,-4.2927,-4.292,-4.3001,-4.301,-4.3013,-4.3022,-4.2998,-4.2958,-4.2946,-4.2937,-4.2922,-4.2893,-4.3094,-4.3094,-4.3094,-4.2888,-4.2882,-4.2954,-4.2957,-4.2985,-4.3008,-4.3083,-4.3127,-4.3123,-4.3102,-4.3029,-4.302,-4.2955,-4.2935,-4.2909,-4.2885,-4.2832,0,0]},{"header":{"parameterUnit":"m.s-1","parameterCategory":1,"la1":30.2992,"la2":30.254,"lo1":-89.0895,"lo2":-89.0443,"dy":0.0025,"dx":0.0025,"nx":19,"ny":19,"refTime":"2026-03-30T03:00:00:Z","depth":0,"parameterNumber":3,"parameterNumberName":"V-component_of_WINDS"},"data":[0,0,0,2.8172,2.8174,2.8282,2.8282,2.8418,2.8419,0,0,0,0,0,0,0,0,0,0,0,2.8139,2.814,2.8171,2.8174,2.8282,2.8282,2.8418,2.8419,0,0,0,0,0,0,0,0,0,0,0,2.8139,2.814,2.8141,2.8175,2.8282,2.8282,2.8417,2.8337,0,0,0,0,0,0,0,0,0,0,2.8232,2.8202,2.8139,2.8141,2.8175,2.8282,2.8282,2.8333,2.8342,2.8369,0,2.8393,0,2.8408,2.8428,2.8429,0,0,0,2.8174,2.8194,2.8224,2.8141,2.8176,2.8281,2.8233,2.8338,2.8348,2.838,2.8395,2.84,2.841,2.8429,2.843,2.8587,2.8588,0,0,2.8168,2.8158,2.8217,2.8231,2.8215,2.823,2.8237,2.8344,2.8358,2.8395,2.8403,2.8413,2.843,2.8431,2.8586,2.8587,0,0,0,2.8151,2.8153,2.8181,2.8225,2.8245,2.8233,2.8241,2.8354,2.8364,2.8404,2.8414,2.8431,2.8432,2.8586,2.8587,2.8614,0,0,0,2.8148,2.8143,2.8178,2.8173,2.8243,2.8301,2.8248,2.8356,2.8369,2.8414,2.8431,2.8434,2.8585,2.8586,2.8612,2.8628,0,0,0,2.8132,2.8142,2.8157,2.8172,2.8218,2.8299,2.8315,2.8359,2.8375,2.8429,2.8434,2.8584,2.8586,2.8609,2.8625,2.8669,0,0,0,2.8112,2.8178,2.8157,2.8234,2.8217,2.8315,2.8315,2.8388,2.8437,2.8431,2.8585,2.8587,2.8609,2.8623,2.8666,2.8704,2.8719,0,0,2.8189,2.8186,2.8233,2.8218,2.8317,2.83,2.8403,2.8457,2.8471,2.8548,2.8552,2.8612,2.8625,2.8668,2.8802,2.8814,0,0,0,2.8253,2.8287,2.8315,2.8363,2.8408,2.8448,2.8488,2.8509,2.8575,2.8509,2.864,2.8647,2.8673,2.8692,2.8702,2.8725,2.8595,2.8594,2.8594,2.8346,2.8362,2.8441,2.8471,2.8517,2.856,2.8599,2.8634,2.8635,2.8666,2.8689,2.8768,2.879,2.8797,2.8822,2.8709,2.871,2.871,2.871,2.846,2.8511,2.8514,2.8591,2.8609,2.8673,2.8717,2.8717,2.878,2.8752,2.8775,2.8744,2.881,2.8832,2.8712,2.8712,2.8711,2.8711,2.8711,2.8524,2.8551,2.8577,2.865,2.8704,2.8732,2.8793,2.8806,2.8818,2.8841,2.8868,2.8868,2.887,2.8853,2.8854,2.8854,2.8854,2.8854,2.8854,2.858,2.8608,2.8659,2.8714,2.8748,2.8794,2.8839,2.8872,2.8913,2.8917,2.8917,2.8917,2.8813,2.8787,2.8859,2.8858,2.8857,2.8857,2.8857,2.8692,2.8669,2.8748,2.8782,2.8849,2.8904,2.892,2.8988,2.9017,2.9047,2.9042,2.8963,2.8961,2.8953,2.8932,2.9037,2.9037,2.9037,2.9037,2.8746,2.8747,2.8832,2.8887,2.8941,2.8965,2.9054,2.9091,2.9124,2.9144,2.913,2.9103,2.9095,2.9098,2.9087,2.9068,2.9205,2.9205,2.9205,2.8817,2.8824,2.8898,2.8932,2.8986,2.9033,2.9118,2.9181,2.9213,2.9212,2.916,2.9153,2.9109,2.9094,2.9091,2.9074,2.9039,0,0]}]]